TimePST,TemperatureF,Dew PointF,Humidity,Sea Level PressureIn,VisibilityMPH,Wind Direction,Wind SpeedMPH,Gust SpeedMPH,PrecipitationIn,Events,Conditions,WindDirDegrees,DateUTC
12:53 AM,34.0,32.0,92,30.00,10.0,NNW,4.6,-,N/A,,Overcast,330,2012-12-15 08:53:00
1:53 AM,35.1,33.1,92,30.00,10.0,Calm,Calm,-,N/A,,Overcast,0,2012-12-15 09:53:00
2:34 AM,35.6,33.8,93,29.98,9.0,Calm,Calm,-,N/A,,Overcast,0,2012-12-15 10:34:00
2:53 AM,35.1,33.1,92,29.99,9.0,Calm,Calm,-,N/A,,Overcast,0,2012-12-15 10:53:00
3:53 AM,35.1,33.1,92,29.96,10.0,Calm,Calm,-,N/A,,Overcast,0,2012-12-15 11:53:00
4:28 AM,35.6,33.8,93,29.94,8.0,Calm,Calm,-,N/A,,Overcast,0,2012-12-15 12:28:00
4:53 AM,35.1,34.0,96,29.94,6.0,Calm,Calm,-,N/A,,Overcast,0,2012-12-15 12:53:00
6:53 AM,34.0,33.1,96,29.93,7.0,Calm,Calm,-,N/A,,Overcast,0,2012-12-15 14:53:00
7:53 AM,34.0,32.0,92,29.93,6.0,Calm,Calm,-,N/A,,Mostly Cloudy,0,2012-12-15 15:53:00
8:53 AM,35.1,33.1,92,29.92,7.0,Calm,Calm,-,N/A,,Mostly Cloudy,0,2012-12-15 16:53:00
9:53 AM,36.0,30.9,82,29.90,7.0,SSE,4.6,-,N/A,,Overcast,150,2012-12-15 17:53:00
10:53 AM,36.0,32.0,86,29.89,10.0,Calm,Calm,-,N/A,,Overcast,0,2012-12-15 18:53:00
11:53 AM,37.0,32.0,82,29.87,10.0,Calm,Calm,-,N/A,,Overcast,0,2012-12-15 19:53:00
12:53 PM,37.0,30.9,79,29.84,9.0,Calm,Calm,-,N/A,,Overcast,0,2012-12-15 20:53:00
1:46 PM,37.4,32.0,81,29.79,5.0,SE,4.6,-,N/A,,Haze,130,2012-12-15 21:46:00
1:53 PM,37.0,32.0,82,29.80,5.0,ESE,4.6,-,N/A,,Haze,120,2012-12-15 21:53:00
2:53 PM,36.0,33.1,89,29.76,5.0,SE,6.9,-,N/A,,Haze,130,2012-12-15 22:53:00
3:53 PM,37.0,33.1,86,29.73,9.0,SE,4.6,-,N/A,,Overcast,140,2012-12-15 23:53:00
4:53 PM,36.0,33.1,89,29.70,6.0,West,4.6,-,N/A,,Overcast,260,2012-12-16 00:53:00
5:53 PM,36.0,34.0,93,29.68,8.0,Calm,Calm,-,0.01,Rain,Light Rain,0,2012-12-16 01:53:00
6:21 PM,35.6,33.8,93,29.66,8.0,Calm,Calm,-,0.01,Rain,Light Rain,0,2012-12-16 02:21:00
6:53 PM,36.0,34.0,93,29.66,7.0,Calm,Calm,-,0.04,Rain,Light Rain,0,2012-12-16 02:53:00
7:53 PM,35.1,34.0,96,29.66,6.0,NW,3.5,-,0.02,,Overcast,320,2012-12-16 03:53:00
8:53 PM,34.0,34.0,100,29.66,6.0,SW,3.5,-,N/A,,Mostly Cloudy,230,2012-12-16 04:53:00
9:53 PM,37.0,32.0,82,29.68,9.0,SW,19.6,32.2,0.00,Snow,Light Snow,230,2012-12-16 05:53:00
10:53 PM,33.1,30.0,89,29.70,9.0,NW,8.1,16.1,0.00,Snow,Light Snow,310,2012-12-16 06:53:00
11:53 PM,33.1,30.9,92,29.72,10.0,North,4.6,-,0.00,,Partly Cloudy,10,2012-12-16 07:53:00